Location: Observatoire du C�gep de Trois-Rivi�res � Champlain
(46.4753°N, 72.3231°W)
Time: 07:52:28
(UTC-04:00)

Envisat - Visible Passes

Search period start: 23 October 2017 00:00
Search period end: 02 November 2017 00:00
Orbit: 764 x 766 km, 98.2° (Epoch: 23 October)

Date Brightness Start Highest point End Pass type
(mag) Time Alt. Az. Time Alt. Az. Time Alt. Az.
23 Oct 3.6 19:47:50 37° NE 19:47:50 37° NE 19:51:58 10° N visible
23 Oct 5.0 21:28:03 25° WNW 21:28:03 25° WNW 21:30:49 10° NNW visible
24 Oct 4.3 19:10:51 20° ENE 19:10:54 20° ENE 19:14:32 10° NNE visible
24 Oct 4.0 20:51:03 42° NW 20:51:03 42° NW 20:54:32 10° NNW visible
25 Oct 4.9 18:34:00 10° ENE 18:34:44 10° NE 18:35:28 10° NE visible
25 Oct 3.5 20:14:04 46° NNE 20:14:04 46° NNE 20:17:48 10° N visible
25 Oct 5.7 21:54:17 15° WNW 21:54:17 15° WNW 21:55:41 10° NW visible
26 Oct 3.9 19:37:05 30° NE 19:37:05 30° NE 19:40:43 10° N visible
26 Oct 4.9 21:17:18 26° NW 21:17:18 26° NW 21:19:54 10° NNW visible
27 Oct 4.5 19:00:05 17° NE 19:00:05 17° NE 19:03:04 10° NNE visible
27 Oct 4.1 20:40:18 38° NNW 20:40:18 38° NNW 20:43:27 10° NNW visible
28 Oct 3.8 20:03:18 37° NNE 20:03:18 37° NNE 20:06:37 10° N visible
28 Oct 5.6 21:43:31 16° NW 21:43:31 16° NW 21:44:57 10° NW visible
29 Oct 4.2 19:26:18 24° NE 19:26:18 24° NE 19:29:24 10° N visible
29 Oct 4.8 21:06:31 26° NW 21:06:31 26° NW 21:08:55 10° NNW visible
30 Oct 4.7 18:49:19 14° NE 18:49:19 14° NE 18:51:28 10° NNE visible
30 Oct 4.2 20:29:31 34° N 20:29:31 34° N 20:32:21 10° NNW visible
31 Oct 4.1 19:52:31 30° NNE 19:52:31 30° NNE 19:55:24 10° N visible
31 Oct 5.5 21:32:44 17° NW 21:32:44 17° NW 21:34:08 10° NW visible
01 Nov 4.5 19:15:31 20° NE 19:15:31 20° NE 19:18:02 10° NNE visible
01 Nov 4.8 20:55:44 25° NNW 20:55:44 25° NNW 20:57:53 10° NNW visible
